Volver al catálogo

USA 40 R/B DEB

ActivoUNKNOWN
NORAD 23356·DEBRIS·🇺🇸 United States

Lanzado Aug 8, 1989 desde Cape Canaveral Space Force Station

Loading…

Próximos Pases (próximas 24 horas)

TLE

ActualizadoSource: Space-Track

Época: Sep 14, 2026, 21:34 UTC

1 23356U 89061AC  26257.89899936  .00025330  00000-0  14294-1 0  9990
2 23356  56.9201 208.9079 2360477  36.2164 337.7456 10.13852127  7350

Sigue USA 40 R/B DEB en tiempo real con AllMySat

Download on the App Store